Weather in Pietra Ligure

Italy     44°09′15″N   8°17′46″E
temp.,
°C
wind,
m/s
gust,
m/s
humid.,
%
clouds,
%
prec.,
mm/h
press.,
hPa
HPBL,
m
5 march, fri
fri501:00+5sw119354 0.1 101854
04:00+5sw019398 0.0 101728
07:00+6nnw119399 0.1 101636
10:00+10ne117487 0.1 1016514
13:00+9ese228891 0.6 1016309
16:00+10ese2285100 0.4 1015442
19:00+7ese129894 0.5 1016113
22:00+7nne119665 0.1 101883
6 march, sat
sat601:00+7nne129661 0.1 102057
04:00+6nnw239270 0.1 102067
07:00+6nnw349173 0.4 1022166
10:00+8nnw357793 0.1 1025522
13:00+7nw488188 0.4 1026721
16:00+5nnw6118299 0.2 1026775
19:00+4nnw5108474 0.2 1026641
22:00+3nnw5108515 0.0 1028570
7 march, sun
sun701:00+3nw488313 0.0 1028410
04:00+2nnw46810 0.0 1027258
07:00+2nnw45824 0.0 1026164
10:00+6nnw46610 0.0 1025523
13:00+10n34500 0.0 1023754
16:00+10nne22500 0.0 1020929
19:00+5nnw227043 0.0 102043
22:00+5nw2271100 0.0 102068
8 march, mon
mon801:00+4nw3472100 0.0 101899
04:00+4nw3473100 0.0 1016142
07:00+4nnw4577100 0.0 1016144
10:00+7nnw4659100 0.0 1016591
13:00+10nnw465096 0.0 1015870
16:00+10nnw575439 0.0 1013903
19:00+6nnw477420 0.0 1014288
22:00+5nnw47780 0.0 1015232
9 march, tue
tue901:00+5nw49770 0.0 1016372
04:00+4nw47790 0.0 1015290
07:00+4nw47800 0.0 1016271
10:00+8nnw47580 0.0 1016755
13:00+10nnw57520 0.0 10161013
16:00+10nnw57561 0.0 10151015
19:00+6nnw47732 0.0 1016375
22:00+5nnw36771 0.0 1019254